IZ0DPP-3 Weather Reports


time (UTC)temp
C
wind
direction
speed
KPH
gust
KPH
rain 1hr
cm
rain 24hr
cm
rain mn
cm
humidity
%
barometer
mb
20260504000904 10 43 1.6 4.8 0.00 0.00 0.00 92 1017.5
20260504000004 10 43 1.6 4.8 0.00 0.00 0.00 92 1017.8
20260503235425 11 43 1.6 4.8 0.00 0.00 0.00 92 1017.5
20260503234505 11 43 0.0 3.2 0.00 0.00 0.00 92 1017.7
20260503233604 11 51 1.6 4.8 0.00 0.00 0.00 92 1017.6
20260503232704 11 52 1.6 3.2 0.00 0.00 0.00 92 1017.8
20260503231806 11 52 1.6 4.8 0.00 0.00 0.00 92 1018.0
20260503230904 11 52 0.0 3.2 0.00 0.00 0.00 92 1017.8
20260503230007 11 52 0.0 4.8 0.00 0.00 0.00 91 1018.0
20260503225404 11 52 0.0 4.8 0.00 0.00 0.00 91 1017.9
20260503224504 11 52 0.0 4.8 0.00 0.00 0.00 91 1018.0
20260503223604 11 52 0.0 3.2 0.00 0.00 0.00 92 1018.1
20260503222705 11 52 0.0 3.2 0.00 0.00 0.00 91 1017.8
20260503221805 11 52 0.0 1.6 0.00 0.00 0.00 90 1018.0
20260503220904 11 52 0.0 1.6 0.00 0.00 0.00 90 1017.7
20260503220026 11 52 0.0 1.6 0.00 0.00 0.00 90 1017.7
20260503215404 12 52 0.0 1.6 0.00 0.00 0.00 88 1017.7
20260503214504 12 52 0.0 1.6 0.00 0.00 0.00 88 1018.0
20260503213604 12 52 0.0 3.2 0.00 0.00 0.00 87 1017.9
20260503212704 13 53 0.0 1.6 0.00 0.00 0.00 85 1017.7
20260503211804 14 0 0.0 0.0 0.00 0.00 0.00 81 1017.9
20260503210904 15 0 0.0 0.0 0.00 0.00 0.00 78 1017.5
20260503210005 15 52 0.0 1.6 0.00 0.00 0.00 77 1017.4
20260503205404 15 118 0.0 3.2 0.00 0.00 0.00 77 1017.2
20260503204504 15 130 0.0 3.2 0.00 0.00 0.00 77 1017.3
20260503203604 16 130 0.0 3.2 0.00 0.00 0.00 77 1017.3
20260503202704 16 105 0.0 4.8 0.00 0.00 0.00 77 1017.5
20260503201819 16 96 1.6 6.4 0.00 0.00 0.00 76 1017.1
20260503200904 15 96 1.6 4.8 0.00 0.00 0.00 79 1017.0
20260503200004 14 96 0.0 1.6 0.00 0.00 0.00 84 1016.9
20260503195425 14 96 0.0 3.2 0.00 0.00 0.00 83 1016.9
20260503194504 14 96 0.0 3.2 0.00 0.00 0.00 84 1017.0
20260503193604 15 96 0.0 3.2 0.00 0.00 0.00 79 1016.5
20260503192704 16 96 0.0 3.2 0.00 0.00 0.00 79 1016.6
20260503191804 16 96 0.0 1.6 0.00 0.00 0.00 78 1016.4
20260503190904 16 96 0.0 3.2 0.00 0.00 0.00 78 1016.5
20260503190004 16 96 0.0 1.6 0.00 0.00 0.00 78 1016.2
20260503185404 16 96 0.0 1.6 0.00 0.00 0.00 79 1016.3
20260503184504 16 96 0.0 1.6 0.00 0.00 0.00 78 1015.8
20260503183605 16 96 0.0 1.6 0.00 0.00 0.00 76 1015.8
20260503182746 17 96 0.0 3.2 0.00 0.00 0.00 76 1015.8
20260503181804 17 96 0.0 3.2 0.00 0.00 0.00 74 1015.7
20260503180904 17 96 0.0 1.6 0.00 0.00 0.00 71 1015.7
20260503180004 18 0 0.0 0.0 0.00 0.00 0.00 67 1015.6
20260503175406 19 98 0.0 4.8 0.00 0.00 0.00 64 1015.6
20260503174504 20 135 0.0 4.8 0.00 0.00 0.00 64 1015.5
20260503173604 20 228 0.0 3.2 0.00 0.00 0.00 63 1015.5
20260503172705 21 0 0.0 0.0 0.00 0.00 0.00 62 1015.2
20260503171804 22 212 0.0 1.6 0.00 0.00 0.00 59 1015.0
20260503170911 22 212 0.0 1.6 0.00 0.00 0.00 58 1015.2
20260503150904 23 235 6.4 16.1 0.00 0.00 0.00 48 1015.6
20260503130925 25 271 1.6 4.8 0.00 0.00 0.00 40 1016.4
20260503080903 17 134 0.0 4.8 0.00 0.00 0.00 57 1019.3
20260503072703 16 133 0.0 4.8 0.00 0.00 0.00 61 1019.5
20260503071803 15 133 0.0 3.2 0.00 0.00 0.00 63 1019.6
20260503070904 15 133 1.6 4.8 0.00 0.00 0.00 63 1019.7
20260503054504 10 35 0.0 3.2 0.00 0.00 0.00 83 1020.0
20260503053603 8 35 0.0 3.2 0.00 0.00 0.00 87 1020.0
20260503052703 8 35 0.0 1.6 0.00 0.00 0.00 89 1019.9
20260503051803 7 35 0.0 1.6 0.00 0.00 0.00 90 1019.8
20260503050903 7 0 0.0 0.0 0.00 0.00 0.00 91 1019.8
20260503050003 7 0 0.0 0.0 0.00 0.00 0.00 93 1019.8
20260503045424 6 0 0.0 0.0 0.00 0.00 0.00 92 1019.7
20260503044505 6 35 0.0 3.2 0.00 0.00 0.00 93 1019.8
20260503043610 6 35 0.0 3.2 0.00 0.00 0.00 93 1019.6
20260503042703 6 35 0.0 4.8 0.00 0.00 0.00 93 1019.8
20260503041803 6 22 1.6 4.8 0.00 0.00 0.00 93 1019.6
20260503040903 6 15 1.6 3.2 0.00 0.00 0.00 93 1019.6
20260503040003 6 15 0.0 3.2 0.00 0.00 0.00 93 1019.7
20260503035403 6 21 1.6 4.8 0.00 0.00 0.00 94 1019.6
20260503034503 6 26 1.6 6.4 0.00 0.00 0.00 94 1019.5
20260503033603 6 31 0.0 3.2 0.00 0.00 0.00 94 1019.2
20260503032703 6 31 0.0 3.2 0.00 0.00 0.00 93 1019.4
20260503031803 6 31 1.6 4.8 0.00 0.00 0.00 93 1019.3
20260503030903 6 30 1.6 4.8 0.00 0.00 0.00 94 1019.3
20260503030003 6 29 0.0 1.6 0.00 0.00 0.00 94 1019.1
20260503025404 6 29 0.0 3.2 0.00 0.00 0.00 94 1019.2
20260503024503 6 29 0.0 1.6 0.00 0.00 0.00 93 1019.1
20260503023603 6 29 0.0 3.2 0.00 0.00 0.00 93 1019.3
20260503022724 6 29 0.0 1.6 0.00 0.00 0.00 92 1019.2
20260503021803 7 29 0.0 3.2 0.00 0.00 0.00 92 1019.5
20260503020924 7 29 0.0 3.2 0.00 0.00 0.00 92 1019.3
20260503020003 7 29 0.0 1.6 0.00 0.00 0.00 92 1019.3
20260503015403 7 29 0.0 1.6 0.00 0.00 0.00 91 1019.4
20260503014503 7 29 0.0 4.8 0.00 0.00 0.00 91 1019.4
20260503013604 7 29 0.0 4.8 0.00 0.00 0.00 91 1019.4
20260503012703 7 29 0.0 4.8 0.00 0.00 0.00 91 1019.7
20260503011803 7 29 0.0 3.2 0.00 0.00 0.00 90 1019.4
20260503010903 7 29 0.0 1.6 0.00 0.00 0.00 90 1019.5
20260503010003 8 29 0.0 4.8 0.00 0.00 0.00 89 1019.7
20260503005424 8 29 0.0 1.6 0.00 0.00 0.00 88 1019.6
20260503004503 8 29 0.0 4.8 0.00 0.00 0.00 88 1019.6
20260503003604 8 29 0.0 4.8 0.00 0.00 0.00 87 1019.8
20260503002724 8 28 1.6 6.4 0.00 0.00 0.00 86 1019.7
20260503001806 8 23 0.0 1.6 0.00 0.00 0.00 87 1020.0